Weather in Taranto

Italy     40°27′41″N   17°15′21″E
temp.,
°C
wind,
m/s
gust,
m/s
humid.,
%
clouds,
%
prec.,
mm/h
press.,
hPa
HPBL,
m
18 april, sun
sun1823:00+10nnw485976 0.0 1013411
02:00+8nnw23699 0.0 1013110
05:00+7nne1172100 0.0 101354
08:00+10ne116197 0.0 1014182
11:00+12wsw3356100 0.0 1016858
14:00+12s126168 0.0 1016545
17:00+13ssw336130 0.0 1015759
20:00+11sse12745 0.0 101588
19 april, mon
mon1923:00+9ene2285100 0.8 101557
02:00+8ene239542 4.8 101472
05:00+9ne228999 0.9 101365
08:00+10nw2286100 2.4 1013245
11:00+13n556967 0.5 10121011
14:00+15n6661100 2.3 10121254
17:00+14n5662100 1.5 10121231
20:00+11n237310 1.9 1014109
20 april, tue
tue2023:00+9n23785 0.0 101577
02:00+8nnw22793 0.0 101599
05:00+8nnw22789 0.0 101580
08:00+10wnw23673 0.0 1016210
11:00+13sw33575 0.0 1017826
14:00+15ssw435219 0.0 1017913
17:00+14ssw435513 0.1 1016849
20:00+12nne006875 0.1 1018100
21 april, wed
wed2123:00+11ene11745 0.0 101835
02:00+10nne22775 0.0 101835
05:00+10nne117619 0.0 101834
08:00+12ene116541 0.0 1019154
11:00+15s33586 0.0 1020989
14:00+16ssw444897 0.0 10191041
17:00+16s3350100 0.0 1019599
20:00+13sse236998 0.0 1019145
22 april, thu
thu2223:00+12e2277100 0.0 102050
02:00+12ene228093 0.0 102050
05:00+11ne2286100 0.8 102063
08:00+14ne1176100 0.8 1020135
11:00+16ssw326122 0.0 1021732
14:00+17s535664 0.0 1020776
17:00+17s4469100 0.0 1020728
20:00+14se238485 0.0 1021143